This is the latest recevied weather packets stored in our database for station/object W1REE. If no packets are shown the sender has not sent any weather packets the latest 10 day(s).
| Time | Temp. | Humidity | Pressure | Rain* | Wind** | Luminosity | Snow |
|---|---|---|---|---|---|---|---|
| 1777830174 | 21.11° C | 14% | 1019.6 hPa | 0 mm | - | 1048 W/m² | - |
| 1777829873 | 21.11° C | 15% | 1019.6 hPa | 0 mm | - | 914 W/m² | - |
| 1777829570 | 21.67° C | 15% | 1019.9 hPa | 0 mm | - | 640 W/m² | - |
| 1777829267 | 20.56° C | 16% | 1019.9 hPa | 0 mm | - | 965 W/m² | - |
| 1777828964 | 19.44° C | 17% | 1020.1 hPa | 0 mm | - | 770 W/m² | - |
| 1777828660 | 19.44° C | 18% | 1019.9 hPa | 0 mm | - | 719 W/m² | - |
| 1777828357 | 19.44° C | 16% | 1020 hPa | 0 mm | - | 618 W/m² | - |
| 1777828054 | 19.44° C | 20% | 1020.1 hPa | 0 mm | - | 481 W/m² | - |
| 1777827751 | 18.89° C | 18% | 1020 hPa | 0 mm | - | 413 W/m² | - |
| 1777827448 | 18.33° C | 18% | 1020.1 hPa | 0 mm | - | 424 W/m² | - |
| 1777827145 | 18.89° C | 18% | 1020.4 hPa | 0 mm | - | 396 W/m² | - |
| 1777826841 | 18.33° C | 19% | 1020.1 hPa | 0 mm | - | 431 W/m² | - |
| 1777826540 | 18.33° C | 20% | 1020.4 hPa | 0 mm | - | 443 W/m² | - |
| 1777826235 | 18.33° C | 19% | 1020.2 hPa | 0 mm | - | 394 W/m² | - |
| 1777825933 | 18.33° C | 20% | 1020.4 hPa | 0 mm | - | 364 W/m² | - |
| 1777825629 | 18.89° C | 20% | 1020.2 hPa | 0 mm | - | 358 W/m² | - |
| 1777825328 | 18.89° C | 22% | 1020.5 hPa | 0 mm | - | 346 W/m² | - |
| 1777825024 | 18.33° C | 21% | 1020.6 hPa | 0 mm | - | 355 W/m² | - |
| 1777824720 | 18.33° C | 20% | 1020.4 hPa | 0 mm | - | 382 W/m² | - |
| 1777824418 | 18.33° C | 20% | 1020.6 hPa | 0 mm | - | 447 W/m² | - |
| 1777824113 | 17.78° C | 24% | 1020.7 hPa | 0 mm | - | 382 W/m² | - |
| 1777823809 | 17.78° C | 22% | 1020.6 hPa | 0 mm | - | 359 W/m² | - |
| 1777823507 | 17.78° C | 21% | 1020.5 hPa | 0 mm | - | 312 W/m² | - |
| 1777823204 | 17.78° C | 20% | 1020.7 hPa | 0 mm | - | 301 W/m² | - |
| 1777822902 | 17.78° C | 23% | 1020.6 hPa | 0 mm | - | 287 W/m² | - |
* Rain latest hour (hover to see other rain measurements)
** Current wind speed in m/s (hover to see current wind gust speed)